Location: ??????
(56.0120°N, 39.1740°E)
Time: 10:25:07
(UTC+00:00)

Cosmos 1602 Rocket - Pass Details

Date: 14 April 2026
Orbit: 596 x 626 km, 82.5° (Epoch: 18 May)

Event Time Altitude Azimuth Distance (km) Brightness Sun altitude
Rises 22:47:29 0° 345° (NNW) 2,880 7.8 -22.0°
Reaches altitude 10° 22:49:44 10° 342° (NNW) 1,966 6.8 -21.9°
Maximum altitude 22:54:00 59° 264° (W) 702 3.6 -21.7°
Enters shadow 22:54:11 58° 252° (WSW) 705 3.5 -21.7°
